Location: ?
(35.4554°N, 139.3092°E)
Time: 21:49:39
(UTC+00:00)

CZ-2C R/B - Pass Details

Date: 21 April 2021
Orbit: 668 x 784 km, 98.2° (Epoch: 10 May)

Event Time Altitude Azimuth Distance (km) Brightness Sun altitude
Rises 19:23:41 0° 357° (N) 3,106 5.9 -8.2°
Reaches altitude 10° 19:26:16 10° 344° (NNW) 2,203 5.0 -7.7°
Maximum altitude 19:30:06 24° 291° (WNW) 1,478 3.6 -7.0°
Drops below altitude 10° 19:34:02 10° 238° (WSW) 2,252 4.3 -6.2°
Enters shadow 19:35:14 - 231° (SW) 2,655 4.7 -6.0°
